Torna al catalogo

BREEZE-M DEB

AttivoHEO
NORAD 36964·DEBRIS·🇷🇺 Russia

Lanciato Feb 28, 2006 da Baikonur Cosmodrome

Loading…

Prossimi Passaggi (prossime 24 ore)

TLE

AggiornatoSource: Space-Track

Epoca: Sep 14, 2026, 06:59 UTC

1 36964U 06006CW  26257.29158482  .00000971  00000-0  76290-3 0  9995
2 36964  52.0167 213.6600 4800861 144.7525 259.4083  5.79514050  8436

Traccia BREEZE-M DEB in tempo reale con AllMySat

Download on the App Store